Flag for U.S.A. Weather past 2 weeks in Jackson, Wyoming, U.S.A.

Now
-9 °F

Clear.


Feels Like: -28 °F
Forecast: 1 / 19 °F
Wind: 10 mph from North

Location: Jackson Hole

Current Time: Dec 27, 2014 at 4:43:13 AM

Latest Report: Dec 27, 2014 at 4:15 AM


Visibility: 10 mi

Pressure: 30.15 "Hg

Humidity: 92%

Dew point: -11 °F

Location of JacksonLocation

Historic Weather in Jackson — Graph

°F

Jackson temperature yesterday

Maximum temperature yesterday: 16 °F (at 12:58 PM)
Minimum temperature yesterday: 3 °F (at 5:55 AM)
Average temperature yesterday: 10 °F

Past Weeks' High & Low Weather Summary

 TemperatureHumidityPressure
High39 °F (Dec 13, 1:52 PM)100% (Dec 12, 3:15 AM)30.33 "Hg (Dec 12, 3:15 AM)
Low-8 °F (Dec 27, 2:35 AM)51% (Dec 21, 9:35 PM)29.34 "Hg (Dec 25, 1:15 AM)
Average22 °F91%29.96 "Hg
* Reported Dec 12 3:15 AM — Dec 27 3:35 AM, Jackson, Weather by CustomWeather, © 2014

Note: Actual official high and low records may vary slightly from our data, if they occured in-between our weather recording intervals... More about our weather records

Advertising

Jackson weather history for previous 24 hours

 ConditionsComfort  
Time TempWeatherWind HumidityBarometerVisibility
3:35 AM
Dec 27
-8 °FClear.9 mph92%30.14 "Hg10 mi
3:15 AM-6 °FClear.12 mph92%30.14 "Hg10 mi
2:55 AM-6 °FClear.13 mph92%30.13 "Hg10 mi
2:35 AM-8 °FClear.14 mph92%30.13 "Hg10 mi
2:15 AM-6 °FClear.6 mph92%30.11 "Hg10 mi
1:55 AM-6 °FClear.12 mph92%30.11 "Hg10 mi
1:35 AM-6 °FClear.9 mph92%30.10 "Hg10 mi
1:15 AM-2 °FPassing clouds.5 mph92%30.09 "Hg10 mi
12:55 AM-2 °FPassing clouds.3 mph92%30.09 "Hg10 mi
12:35 AM0 °FClear.8 mph92%30.09 "Hg10 mi
12:15 AM3 °FPassing clouds.8 mph100%30.09 "Hg5 mi
11:55 PM
Dec 26
3 °FPassing clouds.3 mph92%30.09 "Hg10 mi
11:35 PM7 °FPassing clouds.No wind100%30.09 "Hg10 mi
11:15 PM9 °FPassing clouds.No wind85%30.09 "Hg10 mi
10:55 PM7 °FOvercast.No wind85%30.08 "Hg10 mi
10:35 PM9 °FPassing clouds.No wind100%30.08 "Hg10 mi
10:15 PM7 °FPassing clouds.3 mph92%30.07 "Hg10 mi
9:55 PM10 °FPassing clouds.No wind100%30.06 "Hg10 mi
9:35 PM10 °FOvercast.5 mph92%30.05 "Hg10 mi
7:52 PM16 °FOvercast.No wind79%30.03 "Hg10 mi
6:55 PM16 °FOvercast.5 mph79%30.02 "Hg10 mi
5:55 PM16 °FOvercast.No wind79%30.00 "Hg10 mi
4:52 PM16 °FMostly cloudy.No wind79%29.97 "Hg10 mi
3:51 PM16 °FOvercast.8 mph79%29.96 "Hg10 mi
2:51 PM16 °FOvercast.No wind79%29.94 "Hg10 mi
1:51 PM16 °FPartly sunny.3 mph67%29.92 "Hg10 mi
12:58 PM16 °FPartly sunny.No wind67%29.92 "Hg10 mi
12:00 PM10 °FPassing clouds.No wind85%29.96 "Hg10 mi
10:55 AM10 °FScattered clouds.No wind79%29.94 "Hg10 mi
9:55 AM7 °FSunny.12 mph85%29.93 "Hg10 mi
7:51 AM3 °FClear.12 mph92%29.89 "Hg10 mi
6:51 AM5 °FPassing clouds.14 mph85%29.88 "Hg10 mi
6:35 AM3 °FClear.14 mph92%29.88 "Hg10 mi
6:15 AM5 °FPassing clouds.12 mph85%29.87 "Hg10 mi
5:55 AM3 °FPassing clouds.13 mph92%29.87 "Hg10 mi
5:35 AM7 °FPassing clouds.16 mph85%29.86 "Hg10 mi
5:15 AM7 °FPassing clouds.15 mph85%29.85 "Hg10 mi
4:55 AM7 °FPassing clouds.16 mph85%29.85 "Hg10 mi
4:35 AM7 °FPassing clouds.18 mph85%29.84 "Hg10 mi
4:15 AM9 °FOvercast.16 mph78%29.84 "Hg10 mi
Weather by CustomWeather, © 2014

See weather overviewHow to use our weather pages